[[{"header":{"parameterUnit":"m.s-1","parameterCategory":1,"la1":30.2991,"la2":30.254,"lo1":-89.0895,"lo2":-89.0444,"dy":0.0017,"dx":0.0017,"nx":28,"ny":28,"refTime":"2024-12-24T03:00:00:Z","depth":0,"parameterNumber":2,"parameterNumberName":"U-component_of_WINDS"},"data":[0,0,0,0,0,0,0,0,0,0,0,0,0,0,0,0,0,0,0,0,0,0,0,0,0,0,0,0,0,0,0,0,0,0,0,0,0,0,0,0,0,0,0,0,0,0,0,0,0,0,0,0,0,0,0,0,0,0,-4.99,-4.9901,0,-5.0017,-5.0018,-5.0019,-4.9872,-4.9867,-4.9861,-4.9856,-4.9979,-4.9987,-4.9995,0,0,0,0,0,0,0,0,0,0,0,0,0,-4.9549,-4.9556,-4.9899,-4.9901,-4.9902,-5.0017,-5.0018,-5.002,-4.9873,-4.9866,-4.986,-4.9854,-4.9976,-4.9986,-4.9996,0,0,0,0,0,0,0,0,0,0,0,0,0,-4.9687,-4.9559,-4.9899,-4.9843,-4.9839,-5.0016,-5.0018,-5.002,-4.9874,-4.9866,-4.9858,-4.985,-4.9973,-4.9985,-4.9997,-5.0236,0,0,-5.0035,-5.0041,0,0,0,0,0,0,0,0,-4.968,-4.97,-4.985,-4.9847,-4.9843,-4.9921,-4.9939,-5.0093,-4.9876,-4.9861,-4.9856,-4.9846,-4.9966,-4.9979,-5.0019,-5.0242,-5.0247,-5.0036,-5.0044,-5.0049,-5.0053,0,0,0,0,0,0,0,-4.967,-4.9695,-4.9946,-4.9852,-4.9848,-4.9812,-4.9823,-4.9968,-4.9958,-4.9862,-4.9851,-4.9867,-4.9963,-5.0007,-5.002,-5.0249,-5.0036,-5.0047,-5.0055,-5.006,-5.0672,-5.0681,0,0,0,0,0,0,-4.9667,-4.9688,-4.9942,-4.9949,-4.974,-4.9825,-4.9837,-4.9904,-4.9956,-4.9956,-4.9874,-4.986,-4.999,-5.0006,-5.0024,-5.0306,-5.0049,-5.0061,-5.0068,-5.0664,-5.0674,-5.0684,0,0,0,0,0,0,-4.966,-4.9691,-4.9937,-4.9816,-4.9844,-4.9839,-4.9917,-4.9911,-4.9955,-4.9965,-4.9962,-4.9921,-4.9984,-5.0007,-5.0184,-5.0308,-5.0066,-5.0078,-5.0653,-5.0667,-5.0679,-5.0873,0,0,0,0,0,0,-4.9651,-4.969,-4.978,-4.9819,-4.9851,-5.0096,-4.9924,-4.9919,-4.9976,-4.9959,-5.0008,-5.0009,-4.9979,-5.0166,-5.0196,-5.0321,-5.0087,-5.0642,-5.0659,-5.0675,-5.0856,-5.0891,-5.0922,0,0,0,0,0,-4.9639,-4.9831,-4.9786,-4.9817,-4.9965,-5.0103,-5.0122,-5.0083,-4.9987,-5.0078,-5.0084,-5.0007,-5.029,-5.0186,-5.0218,-5.0349,-5.0634,-5.0654,-5.0674,-5.0841,-5.0884,-5.0921,0,0,0,0,0,0,-4.9809,-4.9835,-4.9785,-4.9996,-5.0048,-5.0078,-5.0192,-5.0131,-5.0213,-5.0193,-5.0143,-5.0155,-5.0344,-5.0364,-5.0247,-5.0582,-5.0446,-5.0473,-5.0562,-5.0603,-5.0636,-5.0627,-5.0098,0,0,0,0,0,-4.9871,-4.9981,-4.9998,-5.0182,-5.0211,-5.0197,-5.0256,-5.0222,-5.0274,-5.0296,-5.0315,-5.037,-5.047,-5.0538,-5.0631,-5.0858,-5.0866,-5.0963,-5.0997,-5.1024,-5.1048,-5.1167,-5.1211,-5.0749,-5.0749,-5.0748,0,0,-5.0,-5.0028,-5.0101,-5.0217,-5.0253,-5.0368,-5.0217,-5.0345,-5.043,-5.0316,-5.0483,-5.05,-5.0557,-5.076,-5.085,-5.0782,-5.1177,-5.1049,-5.1071,-5.108,-5.1192,-5.1236,-5.1275,-5.0762,-5.076,-5.0758,0,0,-5.0294,-5.0327,-5.0483,-5.0522,-5.0579,-5.0568,-5.0606,-5.0645,-5.0651,-5.0818,-5.0734,-5.0835,-5.101,-5.1053,-5.1099,-5.1408,-5.1339,-5.144,-5.1613,-5.173,-5.1766,-5.1798,-5.1908,-5.1947,-5.1464,-5.1464,-5.1465,0,-5.0448,-5.0617,-5.0571,-5.0705,-5.0758,-5.0659,-5.0816,-5.0857,-5.0942,-5.0981,-5.0904,-5.112,-5.1152,-5.1362,-5.1438,-5.1478,-5.1519,-5.1434,-5.1765,-5.1796,-5.1826,-5.1929,-5.197,-5.1476,-5.1475,-5.1474,-5.1472,0,-5.0803,-5.0921,-5.1041,-5.1123,-5.119,-5.1336,-5.1312,-5.1385,-5.1345,-5.1342,-5.1513,-5.1548,-5.1646,-5.1693,-5.1656,-5.1899,-5.1854,-5.1773,-5.1635,-5.1882,-5.1978,-5.2018,-5.1493,-5.1489,-5.1485,-5.1482,0,0,-5.1208,-5.1262,-5.1307,-5.1342,-5.1397,-5.1488,-5.1628,-5.1723,-5.1786,-5.1848,-5.1964,-5.2114,-5.2037,-5.2089,-5.2055,-5.2158,-5.2399,-5.2063,-5.2063,-5.2123,-5.2667,-5.2728,-5.2775,-5.2354,-5.2362,-5.2368,-5.2662,0,-5.1501,-5.1743,-5.1705,-5.1939,-5.2047,-5.1954,-5.2076,-5.2123,-5.2124,-5.2216,-5.2217,-5.2324,-5.2216,-5.2246,-5.2344,-5.2349,-5.2508,-5.2328,-5.2461,-5.2467,-5.2449,-5.2825,-5.289,-5.3166,-5.2699,-5.2706,-5.271,0,-5.1875,-5.1949,-5.2194,-5.2229,-5.2273,-5.2384,-5.2466,-5.2556,-5.2607,-5.26,-5.2658,-5.2605,-5.2745,-5.2605,-5.2797,-5.2675,-5.2728,-5.2739,-5.2748,-5.2759,-5.2603,-5.2845,-5.3254,-5.3295,-5.2769,-5.2765,-5.276,0,-5.2145,-5.2306,-5.2472,-5.2506,-5.2552,-5.2632,-5.2655,-5.2697,-5.2756,-5.2829,-5.2866,-5.2955,-5.3004,-5.3073,-5.3046,-5.2947,-5.3243,-5.3101,-5.3241,-5.3242,-5.3307,-5.3303,-5.3729,-5.3343,-5.3343,-5.3342,-5.3341,0,-5.2476,-5.2629,-5.2593,-5.2696,-5.2864,-5.2819,-5.2987,-5.2999,-5.3037,-5.314,-5.3066,-5.3164,-5.3122,-5.3218,-5.3197,-5.3358,-5.3381,-5.338,-5.3372,-5.3386,-5.3386,-5.3419,-5.3399,-5.3353,-5.335,-5.3348,-5.3346,0,-5.2805,-5.2788,-5.2963,-5.2992,-5.3003,-5.3125,-5.315,-5.3246,-5.3241,-5.3372,-5.34,-5.3393,-5.3501,-5.3481,-5.3601,-5.3587,-5.3788,-5.3758,-5.3771,-5.3763,-5.3904,-5.3891,-5.4365,-5.4425,-5.4001,-5.4005,-5.4009,0,-5.3017,-5.3132,-5.3173,-5.3236,-5.3265,-5.3368,-5.3426,-5.3387,-5.3451,-5.3517,-5.3605,-5.3706,-5.3785,-5.3963,-5.3968,-5.406,-5.403,-5.419,-5.4043,-5.4053,-5.4031,-5.4024,-5.4035,-5.4219,-5.4224,-5.4228,-5.4231,0,-5.3394,-5.3379,-5.3467,-5.3552,-5.3624,-5.3689,-5.3747,-5.3803,-5.3768,-5.3845,-5.3954,-5.4015,-5.4137,-5.4238,-5.4323,-5.4346,-5.4284,-5.4277,-5.4314,-5.4329,-5.4331,-5.433,-5.3849,-5.4266,-5.4263,-5.426,-5.4258,-5.4257,-5.367,-5.3768,-5.3811,-5.3911,-5.395,-5.4005,-5.4096,-5.4102,-5.4192,-5.4287,-5.4258,-5.4382,-5.4429,-5.4535,-5.4569,-5.4665,-5.4606,-5.466,-5.4673,-5.4687,-5.4703,-5.4316,-5.4681,-5.468,-5.4679,-5.4678,-5.4677,0,-5.4042,-5.4065,-5.4158,-5.424,-5.4319,-5.4251,-5.4312,-5.4382,-5.4492,-5.454,-5.4619,-5.4744,-5.4841,-5.4854,-5.4946,-5.5021,-5.4994,-5.5047,-5.504,-5.5046,-5.4752,-5.471,-5.5066,-5.5066,-5.5066,-5.5066,-5.5066,-5.5066,-5.4245,-5.4406,-5.4396,-5.4575,-5.4597,-5.4717,-5.4757,-5.4807,-5.4845,-5.4988,-5.5068,-5.5076,-5.511,-5.5203,-5.529,-5.5291,-5.5328,-5.5391,-5.5382,-5.5106,-5.5067,-5.503,-5.4991,-5.54,-5.54,-5.5667,-5.567,-5.5672]},{"header":{"parameterUnit":"m.s-1","parameterCategory":1,"la1":30.2991,"la2":30.254,"lo1":-89.0895,"lo2":-89.0444,"dy":0.0017,"dx":0.0017,"nx":28,"ny":28,"refTime":"2024-12-24T03:00:00:Z","depth":0,"parameterNumber":3,"parameterNumberName":"V-component_of_WINDS"},"data":[0,0,0,0,0,0,0,0,0,0,0,0,0,0,0,0,0,0,0,0,0,0,0,0,0,0,0,0,0,0,0,0,0,0,0,0,0,0,0,0,0,0,0,0,0,0,0,0,0,0,0,0,0,0,0,0,0,0,-0.6309,-0.6309,0,-0.6298,-0.6298,-0.6297,-0.6292,-0.6292,-0.6292,-0.6292,-0.6281,-0.6281,-0.628,0,0,0,0,0,0,0,0,0,0,0,0,0,-0.6325,-0.6325,-0.6309,-0.6309,-0.6309,-0.6298,-0.6298,-0.6297,-0.6292,-0.6292,-0.6292,-0.6292,-0.6281,-0.6281,-0.628,0,0,0,0,0,0,0,0,0,0,0,0,0,-0.6316,-0.6325,-0.6309,-0.6304,-0.6304,-0.6298,-0.6298,-0.6297,-0.6292,-0.6292,-0.6292,-0.6292,-0.6281,-0.6281,-0.628,-0.6278,0,0,-0.6279,-0.6279,0,0,0,0,0,0,0,0,-0.6317,-0.6316,-0.6305,-0.6305,-0.6304,-0.6296,-0.6299,-0.6291,-0.6292,-0.6296,-0.6292,-0.6292,-0.6286,-0.6285,-0.6283,-0.6277,-0.6277,-0.6279,-0.6279,-0.6279,-0.6278,0,0,0,0,0,0,0,-0.6318,-0.6316,-0.6305,-0.6305,-0.6304,-0.6303,-0.6302,-0.6298,-0.6291,-0.6296,-0.6295,-0.6294,-0.6286,-0.6284,-0.6283,-0.6277,-0.6279,-0.6279,-0.6278,-0.6278,-0.6268,-0.6268,0,0,0,0,0,0,-0.6319,-0.6317,-0.6305,-0.6304,-0.6311,-0.6303,-0.6301,-0.6299,-0.6291,-0.629,-0.6294,-0.6294,-0.6284,-0.6283,-0.6282,-0.6278,-0.6279,-0.6278,-0.6278,-0.6268,-0.6268,-0.6268,0,0,0,0,0,0,-0.6319,-0.6318,-0.6305,-0.631,-0.6309,-0.6302,-0.63,-0.6298,-0.6296,-0.629,-0.6289,-0.6293,-0.6284,-0.6283,-0.6279,-0.6278,-0.6278,-0.6278,-0.6268,-0.6268,-0.6268,-0.6271,0,0,0,0,0,0,-0.632,-0.6318,-0.6317,-0.631,-0.6308,-0.6302,-0.63,-0.6298,-0.6296,-0.6295,-0.6289,-0.6288,-0.6284,-0.6279,-0.6278,-0.6277,-0.6277,-0.6268,-0.6268,-0.6268,-0.6271,-0.6271,-0.6271,0,0,0,0,0,-0.632,-0.6319,-0.6317,-0.6316,-0.6307,-0.6302,-0.6301,-0.6296,-0.6296,-0.6294,-0.629,-0.6288,-0.6278,-0.6279,-0.6278,-0.6277,-0.6268,-0.6268,-0.6268,-0.6271,-0.6271,-0.6271,0,0,0,0,0,0,-0.6326,-0.6318,-0.6316,-0.6312,-0.6308,-0.6301,-0.63,-0.6297,-0.6293,-0.6292,-0.6287,-0.6286,-0.6282,-0.6279,-0.628,-0.6274,-0.6273,-0.6272,-0.6276,-0.6276,-0.6276,-0.6277,-0.6277,0,0,0,0,0,-0.6327,-0.6324,-0.6317,-0.6314,-0.6312,-0.6306,-0.6304,-0.63,-0.6296,-0.6294,-0.6289,-0.6285,-0.6281,-0.6278,-0.6274,-0.6271,-0.6269,-0.6269,-0.6269,-0.6269,-0.6269,-0.6266,-0.6266,-0.6267,-0.6267,-0.6267,0,0,-0.6329,-0.6324,-0.6322,-0.6315,-0.6311,-0.6307,-0.6305,-0.6301,-0.6298,-0.6293,-0.6289,-0.6285,-0.628,-0.6276,-0.6274,-0.6273,-0.6268,-0.6269,-0.627,-0.6269,-0.6266,-0.6266,-0.6266,-0.6267,-0.6267,-0.6267,0,0,-0.6331,-0.6327,-0.6324,-0.632,-0.6313,-0.6309,-0.6309,-0.6302,-0.6299,-0.6295,-0.6291,-0.6287,-0.628,-0.6276,-0.6273,-0.6272,-0.627,-0.6271,-0.6272,-0.6269,-0.6269,-0.6269,-0.6268,-0.6267,-0.6271,-0.6271,-0.6271,0,-0.6334,-0.6328,-0.6323,-0.6319,-0.6315,-0.6311,-0.6307,-0.6304,-0.6297,-0.6294,-0.6294,-0.6284,-0.628,-0.6275,-0.6274,-0.6272,-0.6271,-0.6272,-0.6269,-0.6269,-0.6269,-0.6268,-0.6268,-0.6271,-0.6271,-0.6271,-0.6271,0,-0.6332,-0.6327,-0.6326,-0.6318,-0.6315,-0.6312,-0.6306,-0.6303,-0.63,-0.6296,-0.629,-0.6285,-0.628,-0.6278,-0.6276,-0.6272,-0.6272,-0.627,-0.6269,-0.6269,-0.6268,-0.6268,-0.6271,-0.6271,-0.6271,-0.6271,0,0,-0.6337,-0.6326,-0.6326,-0.6322,-0.6314,-0.6311,-0.6307,-0.6301,-0.6298,-0.6293,-0.629,-0.6283,-0.6282,-0.6278,-0.6275,-0.6272,-0.6271,-0.6271,-0.6271,-0.6271,-0.6266,-0.6267,-0.6267,-0.6269,-0.6269,-0.6269,-0.6266,0,-0.6337,-0.6329,-0.6324,-0.6319,-0.6314,-0.6309,-0.6306,-0.63,-0.6296,-0.6292,-0.6288,-0.6283,-0.6281,-0.6279,-0.6276,-0.6272,-0.627,-0.6272,-0.6265,-0.6265,-0.6267,-0.6266,-0.6267,-0.6265,-0.6266,-0.6266,-0.6266,0,-0.6336,-0.6331,-0.6325,-0.6316,-0.6314,-0.6311,-0.6305,-0.6301,-0.6295,-0.6292,-0.6288,-0.6284,-0.6279,-0.6278,-0.6271,-0.6273,-0.627,-0.6267,-0.6267,-0.6266,-0.6265,-0.6265,-0.6264,-0.6264,-0.6265,-0.6265,-0.6265,0,-0.634,-0.6331,-0.6326,-0.6323,-0.6314,-0.6312,-0.6308,-0.6301,-0.6298,-0.6292,-0.629,-0.6284,-0.6281,-0.6276,-0.6271,-0.6271,-0.6264,-0.6263,-0.6262,-0.6262,-0.626,-0.6261,-0.6259,-0.6259,-0.6259,-0.6259,-0.6259,0,-0.634,-0.6337,-0.6328,-0.6325,-0.632,-0.6314,-0.631,-0.6305,-0.6299,-0.6295,-0.629,-0.6287,-0.628,-0.6275,-0.6271,-0.6266,-0.6264,-0.6262,-0.6261,-0.6262,-0.6262,-0.626,-0.626,-0.6259,-0.6259,-0.6259,-0.6259,0,-0.6344,-0.6338,-0.6332,-0.6323,-0.6321,-0.6318,-0.631,-0.6307,-0.6302,-0.6297,-0.6295,-0.6288,-0.6282,-0.6276,-0.6269,-0.6266,-0.626,-0.6259,-0.6262,-0.6261,-0.626,-0.626,-0.6257,-0.6256,-0.6257,-0.6257,-0.6257,0,-0.6345,-0.6342,-0.6332,-0.6329,-0.6325,-0.632,-0.6316,-0.6309,-0.6305,-0.6297,-0.6295,-0.6288,-0.6283,-0.6274,-0.6268,-0.6261,-0.626,-0.6259,-0.6259,-0.626,-0.6259,-0.6259,-0.6259,-0.6259,-0.6259,-0.6259,-0.6259,0,-0.6346,-0.6343,-0.6337,-0.633,-0.6326,-0.632,-0.6314,-0.6312,-0.6304,-0.63,-0.6294,-0.6289,-0.6281,-0.6274,-0.6267,-0.6263,-0.626,-0.6259,-0.6259,-0.626,-0.6262,-0.626,-0.6262,-0.6259,-0.6259,-0.6259,-0.6259,-0.6259,-0.6348,-0.6345,-0.6337,-0.6331,-0.6326,-0.632,-0.6316,-0.6311,-0.6305,-0.6298,-0.6294,-0.6288,-0.6281,-0.6271,-0.6266,-0.6261,-0.626,-0.6259,-0.6259,-0.6259,-0.6259,-0.6263,-0.626,-0.626,-0.626,-0.626,-0.626,0,-0.6349,-0.6343,-0.6338,-0.6329,-0.6324,-0.6321,-0.6314,-0.631,-0.6305,-0.6298,-0.6293,-0.6285,-0.6278,-0.6271,-0.6265,-0.6261,-0.626,-0.626,-0.626,-0.6259,-0.626,-0.6261,-0.6261,-0.6261,-0.6261,-0.6261,-0.6261,-0.6261,-0.6348,-0.6342,-0.6338,-0.6329,-0.6324,-0.6317,-0.6314,-0.6308,-0.6303,-0.6295,-0.6289,-0.6284,-0.6278,-0.627,-0.6264,-0.6262,-0.626,-0.626,-0.6258,-0.6259,-0.6259,-0.6259,-0.626,-0.626,-0.626,-0.6257,-0.6257,-0.6257]}]]